Flag for Switzerland Weather past 2 weeks in Reinach, Basel-Land, Switzerland

Now
41 °F

Overcast.


Feels Like: 36 °F
Forecast: 36 / 43 °F
Wind: 7 mph from East

Location: Bale-Mulhouse

Current Time: Jan 28, 2015 at 11:15:48 PM

Latest Report: Jan 28, 2015 at 10:00 PM


Visibility: 19 mi

Pressure: 29.72 "Hg

Humidity: 77%

Dew point: 34 °F

Location of ReinachLocation

Historic Weather in Reinach — Graph

°F

Reinach temperature yesterday

Maximum temperature yesterday: 39 °F (at 4:00 PM)
Minimum temperature yesterday: 33 °F (at 12:00 AM)
Average temperature yesterday: 35 °F

Past Weeks' High & Low Weather Summary

 TemperatureHumidityPressure
High54 °F (Jan 14, 12:00 AM)98% (Jan 20, 7:00 AM)30.49 "Hg (Jan 20, 7:00 AM)
Low27 °F (Jan 18, 6:00 AM)52% (Jan 14, 12:00 AM)29.73 "Hg (Jan 16, 3:00 PM)
Average36 °F88%30.07 "Hg
* Reported Jan 13 9:00 PM — Jan 28 9:00 PM, Reinach, Weather by CustomWeather, © 2014

Note: Actual official high and low records may vary slightly from our data, if they occured in-between our weather recording intervals... More about our weather records

Advertising

Reinach weather history for previous 24 hours

 ConditionsComfort  
Time TempWeatherWind HumidityBarometerVisibility
9:00 PM
Jan 28
40 °FOvercast.6 mph75%29.76 "Hg19 mi
8:00 PM40 °FOvercast.5 mph75%29.81 "Hg19 mi
7:00 PM40 °FOvercast.3 mph72%29.85 "Hg19 mi
6:00 PM40 °FOvercast.7 mph71%29.89 "Hg25 mi
5:00 PM41 °FLight rain. Overcast.14 mph72%29.94 "Hg25 mi
4:00 PM42 °FOvercast.10 mph67%29.97 "Hg19 mi
3:00 PM42 °FOvercast.8 mph68%29.99 "Hg34 mi
2:00 PM40 °FOvercast.2 mph70%30.05 "Hg16 mi
1:00 PM40 °FOvercast.3 mph72%30.10 "Hg16 mi
12:00 PM39 °FOvercast.3 mph75%30.14 "Hg12 mi
11:00 AM37 °FOvercast.5 mph82%30.17 "Hg12 mi
10:00 AM33 °FOvercast.3 mph92%30.19 "Hg9 mi
9:00 AM33 °FOvercast.5 mph90%30.21 "Hg9 mi
8:00 AM32 °FOvercast.6 mph91%30.21 "Hg9 mi
7:00 AM32 °FOvercast.5 mph92%30.22 "Hg10 mi
6:00 AM32 °FOvercast.6 mph92%30.22 "Hg8 mi
5:00 AM30 °FOvercast.3 mph95%30.24 "Hg7 mi
4:00 AM31 °FOvercast.3 mph95%30.26 "Hg9 mi
3:00 AM29 °FPassing clouds.5 mph92%30.29 "Hg7 mi
2:00 AM30 °FChilly.2 mph92%30.30 "Hg6 mi
1:00 AM32 °FChilly.2 mph92%30.30 "Hg9 mi
12:00 AM32 °FOvercast.2 mph91%30.30 "Hg7 mi
11:00 PM
Jan 27
34 °FOvercast.2 mph90%30.30 "Hg8 mi
Weather by CustomWeather, © 2014

See weather overviewHow to use our weather pages